This is the latest recevied weather packets stored in our database for station/object KI7JYE. If no packets are shown the sender has not sent any weather packets the latest 10 day(s).
| Time | Temp. | Humidity | Pressure | Rain* | Wind** | Luminosity | Snow |
|---|---|---|---|---|---|---|---|
| 1777916486 | 15° C | 80% | 1012.8 hPa | 0 mm | - | 172 W/m² | - |
| 1777916183 | 14.44° C | 81% | 1012.5 hPa | 0 mm | - | 174 W/m² | - |
| 1777915881 | 14.44° C | 82% | 1012.6 hPa | 0 mm | - | 161 W/m² | - |
| 1777915577 | 14.44° C | 82% | 1012.7 hPa | 0 mm | - | 154 W/m² | - |
| 1777915274 | 13.89° C | 82% | 1012.8 hPa | 0 mm | - | 147 W/m² | - |
| 1777914970 | 14.44° C | 82% | 1012.4 hPa | 0 mm | - | 169 W/m² | - |
| 1777914668 | 14.44° C | 82% | 1012.8 hPa | 0 mm | - | 163 W/m² | - |
| 1777914363 | 13.89° C | 83% | 1012.7 hPa | 0 mm | - | 150 W/m² | - |
| 1777914061 | 13.89° C | 82% | 1012.7 hPa | 0 mm | - | 144 W/m² | - |
| 1777913756 | 13.89° C | 84% | 1012.6 hPa | 0 mm | - | 140 W/m² | - |
| 1777913453 | 13.89° C | 82% | 1012.5 hPa | 0 mm | - | 127 W/m² | - |
| 1777913150 | 13.89° C | 83% | 1012.9 hPa | 0 mm | - | 107 W/m² | - |
| 1777912847 | 13.89° C | 83% | 1012.4 hPa | 0 mm | - | 101 W/m² | - |
| 1777912543 | 13.89° C | 84% | 1012.7 hPa | 0 mm | - | 105 W/m² | - |
| 1777912239 | 13.89° C | 84% | 1012.6 hPa | 0 mm | - | 105 W/m² | - |
| 1777911936 | 13.89° C | 84% | 1012.5 hPa | 0 mm | - | 115 W/m² | - |
| 1777911632 | 13.89° C | 85% | 1012.6 hPa | 0 mm | - | 114 W/m² | - |
| 1777911328 | 13.89° C | 85% | 1012.7 hPa | 0 mm | - | 104 W/m² | - |
| 1777911026 | 13.33° C | 85% | 1012.4 hPa | 0 mm | - | 99 W/m² | - |
| 1777910723 | 13.33° C | 86% | 1012.4 hPa | 0 mm | - | 96 W/m² | - |
| 1777910420 | 13.33° C | 86% | 1012.5 hPa | 0 mm | - | 88 W/m² | - |
| 1777910116 | 13.33° C | 86% | 1012.5 hPa | 0 mm | - | 83 W/m² | - |
| 1777909815 | 12.78° C | 87% | 1012.5 hPa | 0 mm | - | 81 W/m² | - |
| 1777909510 | 13.33° C | 86% | 1012.3 hPa | 0 mm | - | 75 W/m² | - |
| 1777909208 | 12.78° C | 87% | 1012.5 hPa | 0 mm | - | 75 W/m² | - |
* Rain latest hour (hover to see other rain measurements)
** Current wind speed in m/s (hover to see current wind gust speed)